User: anonymous   Login
Location: Carnetin
(48.9010°N, 2.7059°E)
Time: 02:37:26
(UTC+00:00)
Language:

CZ-4C R/B - Orbit

View from above orbital plane
View from above orbital plane
View from above satellite
View from above satellite

Ground track
Ground track

The orbit data is extracted from the following two-line orbital elements,

1 32290U 07055B   22018.51760265  .00007025  00000-0  16041-3 0  9997
2 32290  97.6807 212.9419 0054237 260.1529  99.3591 15.41655657789363
Epoch (UTC): 18 January 2022 12:25:20
Eccentricity: 0.0054237
inclination: 97.6807°
perigee height: 404 km
apogee height: 478 km
right ascension of ascending node: 212.9419°
argument of perigee: 260.1529°
revolutions per day: 15.41655657
mean anomaly at epoch: 99.3591°
orbit number at epoch: 78936

The dashed part of the orbit path shows where the satellite is in the earth's shadow,  

DLR